sat.trackr.live / text

‹ back to catalog

THURAYA-4

NORAD 62483 · 2025-001A

PAYLOAD ACTIVE UNKNOWN

§ Identity

Operator
Country
UAE
Launch date
2025-01-04
Launch site
AFETR
Launch vehicle
Mass (kg)
RCS (m²)

Purposes: comms

External: N2YO · Heavens-Above · Gunter

§ Orbital elements

Epoch: 2026-09-19T12:02:57.723936Z

Period
1,436.06 min
Inclination
0.0229°
Eccentricity
0.0000188
Mean motion
1.00274534 rev/d
Perigee alt
35,785.0 km
Apogee alt
35,786.6 km
Semi-major
42,164.0 km
B*
0.0000e+0
RAAN
98.5432°
Arg perigee
359.9767°
Mean anomaly
124.9448°
Rev number
512

§ Raw data

THURAYA-41 62483U 25001A   26262.50205699  .00000135  00000+0  00000+0 0  99922 62483   0.0229  98.5432 0000188 359.9767 124.9448  1.00274534  5128

JSON: /api/v1/satellites/62483 · /tle

For live sub-satellite position, see the globe view (requires WebGL).

§ Visibility from observer

Set your observer location to see the next 7 days of passes ≥ 10°. The values pass through the URL so the page stays shareable.

No JS? Fill the form by hand. The geolocation button needs JavaScript.